Lexington Weather

Lexington, Massachusetts, USA

40°F
11/27/2020 2:37am 
  • Lexington Conditions: Fog, Overcast
  • Temperature: 39.6°F / 4.2°CColder 1.0°F than last hour.
  • Dew Point: 38.8°FDecreased 1.1°Fsince last hour.
  • Relative Humidity: 97
  • Wind: Calm, 10-min avg: Calm, gust: None
  • Barometer: 29.97 in Steady
  • Visibility: ¼ mile
  • Rain Today: 0.00 in
  •   
Southeast Middlesex County - Special Weather Statement
 - SEE ALL NEARBY ALERTS -

Regional Weather Roundup
for Boston / Norton, MA

        
000
ASUS41 KBOX 240204
RWRBOX

REGIONAL WEATHER ROUNDUP
NATIONAL WEATHER SERVICE BOSTON/NORTON MA
900 PM EST MON NOV 23 2020

NOTE:  "FAIR" INDICATES FEW OR NO CLOUDS BELOW 12,000 FEET WITH NO 
SIGNIFICANT WEATHER AND/OR OBSTRUCTIONS TO VISIBILITY.

MAZALL-240300-
EASTERN MASSACHUSETTS
  
CITY           SKY/WX    TMP DP  RH WIND       PRES   REMARKS
BOSTON         CLEAR     39  26  59 W17G26    29.94R WCI  30          
BEVERLY        CLEAR     39  26  59 NW17G24   29.91R WCI  30          
LAWRENCE       CLEAR     38  27  64 W14G24    29.94S WCI  30          
BEDFORD        CLEAR     36  26  67 W6        29.94S WCI  31          
BLUE HILL        N/A     35  27  72 W21G35    29.91R WCI  24          
NORWOOD        CLEAR     39  28  64 W8        29.96R                  
MARSHFIELD     CLEAR     41  28  60 NW8G23    29.93R                  
PLYMOUTH       CLEAR     38  28  67 W12       29.93R WCI  30          
TAUNTON        CLEAR     41  27  57 NW8G17    29.95R                  
NEW BEDFORD    CLEAR     40  28  62 W14G22    29.94R                  
$$

MAZALL-240300-
CAPE COD AND THE ISLANDS
  
CITY           SKY/WX    TMP DP  RH WIND       PRES   REMARKS
FALMOUTH       CLEAR     39  28  65 NW16G24   29.92R WCI  30          
HYANNIS        CLEAR     40  31  70 NW14G22   29.89R                  
CHATHAM        CLEAR     43  30  60 NW9G24    29.90R                  
NANTUCKET      CLEAR     43  31  62 NW24G33   29.91R                  
MARTHAS VNYRD  CLEAR     41  29  62 NW18G29   29.94R                  
$$
 
MAZALL-240300-
CENTRAL AND WESTERN MASSACHUSETTS
  
CITY           SKY/WX    TMP DP  RH WIND       PRES   REMARKS
WORCESTER      CLEAR     35  24  64 W22G31    29.93S WCI  23          
FITCHBURG      CLEAR     37  24  59 NW9G23    29.97S WCI  30          
ORANGE         CLEAR     34  27  75 NW8       30.00S WCI  27          
SPRINGFIELD    PTCLDY    37  22  55 NW15      30.01F WCI  28          
WESTFIELD      CLEAR     37  25  61 N7        30.03S WCI  32          
NORTH ADAMS    CLOUDY    36  24  62 W13G20    30.05S WCI  27          
PITTSFIELD     CLEAR     32  24  72 W9        30.02F WCI  24          
$$
 
RIZALL-240300-
RHODE ISLAND
  
CITY           SKY/WX    TMP DP  RH WIND       PRES   REMARKS
PROVIDENCE     CLEAR     39  27  62 NW10G24   29.98R                  
NEWPORT        CLEAR     39  28  64 NW18G28   29.96S WCI  30          
BLOCK ISLAND   CLEAR     40  27  59 NW16G33   30.00S WCI  31          
SMITHFIELD     CLEAR     36  28  73 NW12      29.97R WCI  28          
WESTERLY       CLEAR     40  25  55 NW10G23   30.00S                  
$$
 
CTZALL-240300-
CONNECTICUT
  
CITY           SKY/WX    TMP DP  RH WIND       PRES   REMARKS
BRADLEY INTL   PTCLDY    38  24  57 NW12      30.04F WCI  30          
HARTFORD       CLEAR     41  24  51 NW16G22   30.06S                  
BRIDGEPORT     CLEAR     40  28  62 NW6       30.09R                  
DANBURY        PTCLDY    38  27  64 CALM      30.09R                  
GROTON         CLEAR     40  26  57 NW18G26   30.00F WCI  31          
NEW HAVEN      CLEAR     44  27  51 NW17G28   30.07R                  
CHESTER        FAIR      39  23  52 NW14G22   30.04R WCI  31          
MERIDEN        CLEAR     40  24  53 NW9       30.07R                  
WILLIMANTIC    CLEAR     38  24  57 VRB7G20   30.02S                  
OXFORD         CLEAR     37  26  64 NW10G17   30.06S WCI  30          
$$

MEZ002-015-021-024-NHZ003-005-008-011-012-014-VTZ005-008-240300-
NORTHERN NEW ENGLAND
  
CITY           SKY/WX    TMP DP  RH WIND       PRES   REMARKS
PORTLAND ME    CLEAR     35  26  69 NW12G26   29.86S WCI  27          
BANGOR ME      CLOUDY    35  29  78 W12G20    29.73F WCI  27          
CONCORD NH     PTCLDY    36  23  59 NW23G30   29.94R WCI  24          
MANCHESTER NH  PTCLDY    38  25  59 W10       29.93R WCI  31          
NASHUA NH      CLEAR     37  27  67 NW10G17   29.96S WCI  30          
PORTSMOUTH NH  PTCLDY    37  23  57 W17G31    29.89R WCI  28          
JAFFREY NH     CLEAR     34  23  64 VRB7G18   29.95S WCI  28          
KEENE NH       PTCLDY    35  24  64 NW10      30.01R WCI  27          
BURLINGTON VT  CLOUDY    36  25  64 N12       30.05S WCI  28          
MT. WASHINGTON SNOWSHWR   9   9 100 W69G84      N/A  VSB 1/16WCI -22  
$$

NYZ052-076-240300-
EASTERN NEW YORK
  
CITY           SKY/WX    TMP DP  RH WIND       PRES   REMARKS
ALBANY         PTCLDY    30  25  81 W6        30.10S WCI  24          
NEW YORK CITY  PTCLDY    46  28  49 NW18G24   30.13R                  
$$
 
ANZALL-240300-
MARINE OBSERVATIONS
  
STATION/POSITION TIME  TEMP    WIND        PRES    VSBY  WAVE
                       AIR SEA DIR/SP/G                  HT/PER
                 (UTC) (F)     (DEG/KT/KT) (MB)    (MI)  (FT/S)
BOSTON BUOY      0140   42 51  300/ 25/ 35 1013.3R
BUZZARDS BAY     0100          310/ 34/ 37 1014.6F
NANTUCKET SOUND  0140      52  310/ 25/ 31   N/A
MASS BAY-STELLWA NOT AVBL
ISLE OF SHOALS   0100   40     300/ 24/ 28 1011.3R
S OF BLOCK IS    0126      57                N/A           9/ 7
$$

......................KEY.........................
  SKY/WX - SKY CONDITION/PRESENT WEATHER
  TMP    - TEMPERATURE IN FAHRENHEIT
  DWPT   - DEWPOINT IN FAHRENHEIT
  RH     - RELATIVE HUMIDITY IN PERCENT
  WIND   - DIRECTION AND SPEED IN MPH
  PRES   - MEAN SEA LEVEL PRESSURE IN INCHES OF HG
  WCI    - WIND CHILL INDEX
  VSB    - VISIBILITY IN MILES
  HX     - HEAT INDEX
  TC     - TEMPERATURE IN CELSIUS
  VRB    - VARIABLE WIND DIRECTION
  N/A    - NOT AVAILABLE
  
      

Other recent Regional Weather Roundups

Thu Nov 26, 11:04pm

Thu Nov 26, 10:04pm

Thu Nov 26, 9:04pm

Thu Nov 26, 8:04pm

Thu Nov 26, 7:04pm

Thu Nov 26, 6:04pm

Thu Nov 26, 5:04pm

Thu Nov 26, 4:04pm

Thu Nov 26, 2:04pm

Thu Nov 26, 1:04pm

Thu Nov 26, 12:04pm

Thu Nov 26, 11:04am

Thu Nov 26, 10:04am

Thu Nov 26, 9:04am

Thu Nov 26, 8:04am

Thu Nov 26, 7:04am

Thu Nov 26, 6:04am

Thu Nov 26, 5:04am

Thu Nov 26, 4:04am

Thu Nov 26, 3:04am

Thu Nov 26, 2:04am

Thu Nov 26, 1:04am

Thu Nov 26, 12:04am

Wed Nov 25, 11:04pm

Wed Nov 25, 10:04pm

Wed Nov 25, 9:04pm

Wed Nov 25, 8:04pm

Wed Nov 25, 7:04pm

Wed Nov 25, 6:04pm

Wed Nov 25, 5:04pm

Wed Nov 25, 4:04pm

Wed Nov 25, 3:05pm

Wed Nov 25, 2:04pm

Wed Nov 25, 1:04pm

Wed Nov 25, 12:05pm

Wed Nov 25, 11:04am

Wed Nov 25, 10:04am

Wed Nov 25, 9:04am

Wed Nov 25, 8:04am

Wed Nov 25, 7:04am

Wed Nov 25, 6:04am

Wed Nov 25, 5:04am

Wed Nov 25, 4:04am

Wed Nov 25, 3:04am

Wed Nov 25, 2:04am

Wed Nov 25, 1:04am

Wed Nov 25, 12:04am

Tue Nov 24, 11:04pm

Tue Nov 24, 10:04pm

Tue Nov 24, 9:04pm

Tue Nov 24, 8:04pm

Tue Nov 24, 7:04pm

Tue Nov 24, 6:04pm

Tue Nov 24, 5:04pm

Tue Nov 24, 4:05pm

Tue Nov 24, 3:05pm

Tue Nov 24, 2:05pm

Tue Nov 24, 1:05pm

Tue Nov 24, 12:04pm

Tue Nov 24, 11:04am

Tue Nov 24, 10:04am

Tue Nov 24, 9:04am

Tue Nov 24, 8:04am

Tue Nov 24, 7:04am

Tue Nov 24, 6:04am

Tue Nov 24, 5:04am

Tue Nov 24, 4:05am

Tue Nov 24, 3:04am

Tue Nov 24, 2:04am

Tue Nov 24, 1:04am

Tue Nov 24, 12:05am

Mon Nov 23, 11:04pm

Mon Nov 23, 10:04pm

Mon Nov 23, 8:04pm

Mon Nov 23, 7:04pm

Mon Nov 23, 6:04pm

Mon Nov 23, 5:04pm

Mon Nov 23, 4:04pm

Mon Nov 23, 3:04pm

Mon Nov 23, 2:04pm

Mon Nov 23, 1:04pm

Mon Nov 23, 12:04pm

Mon Nov 23, 11:04am

Mon Nov 23, 10:04am

Mon Nov 23, 9:04am

Mon Nov 23, 8:05am

Mon Nov 23, 7:04am

Mon Nov 23, 6:04am

Mon Nov 23, 5:04am

Mon Nov 23, 4:04am

Mon Nov 23, 3:04am

Mon Nov 23, 2:04am

Mon Nov 23, 1:04am

Mon Nov 23, 12:05am

Sun Nov 22, 11:04pm

Sun Nov 22, 10:04pm

Sun Nov 22, 9:04pm

Sun Nov 22, 8:05pm

Sun Nov 22, 7:04pm

Sun Nov 22, 6:04pm

Sun Nov 22, 5:04pm

Sun Nov 22, 4:04pm

Sun Nov 22, 3:04pm

Sun Nov 22, 2:04pm

Sun Nov 22, 1:05pm

Sun Nov 22, 12:04pm

Sun Nov 22, 11:04am

Sun Nov 22, 10:05am

Sun Nov 22, 9:04am

Sun Nov 22, 8:04am

Sun Nov 22, 7:04am

Sun Nov 22, 6:04am

Sun Nov 22, 5:04am

Sun Nov 22, 4:04am

Sun Nov 22, 3:04am

Sun Nov 22, 2:04am

Sun Nov 22, 1:04am

Sun Nov 22, 12:04am

Sat Nov 21, 11:04pm

Sat Nov 21, 10:04pm

Sat Nov 21, 9:04pm

Sat Nov 21, 8:05pm

Sat Nov 21, 7:04pm

Sat Nov 21, 6:04pm

Sat Nov 21, 5:04pm

Sat Nov 21, 4:05pm

Sat Nov 21, 3:04pm

Sat Nov 21, 2:04pm

Sat Nov 21, 1:05pm

Sat Nov 21, 12:04pm

Sat Nov 21, 11:04am

Sat Nov 21, 10:04am

Sat Nov 21, 9:04am

Sat Nov 21, 8:04am

Sat Nov 21, 7:04am

Sat Nov 21, 6:04am

Sat Nov 21, 5:04am

Sat Nov 21, 4:04am

Sat Nov 21, 3:04am

Sat Nov 21, 2:04am

Sat Nov 21, 1:04am

Sat Nov 21, 12:04am

Fri Nov 20, 11:04pm

Fri Nov 20, 10:04pm

Fri Nov 20, 9:04pm

Fri Nov 20, 8:04pm

Fri Nov 20, 7:04pm

Fri Nov 20, 6:04pm

Fri Nov 20, 5:04pm

Fri Nov 20, 4:05pm

Fri Nov 20, 3:05pm

Fri Nov 20, 2:04pm

Fri Nov 20, 1:04pm

Fri Nov 20, 12:04pm

Fri Nov 20, 11:04am

Fri Nov 20, 10:04am

Fri Nov 20, 9:04am

Fri Nov 20, 8:04am

Fri Nov 20, 7:04am

Fri Nov 20, 6:04am

Fri Nov 20, 5:04am

Fri Nov 20, 4:04am

Fri Nov 20, 3:04am

Meta data:

ID: ddc2cc6c-edc9-4fcc-a29d-5f31a0302683
Link: https://api.weather.gov/products/ddc2cc6c-edc9-4fcc-a29d-5f31a0302683